Fort Drum, NY

4:22 PM EDT on May 23, 2017 (GMT -0400)
Wheeler-Sack Army Air Field

Weather History for KGTB - September, 2013

Change the Weather History Date:

Thursday, September 19, 2013

  Actual Average Record
Temperature  
Mean Temperature 62 °F -  
Max Temperature 76 °F 66 °F 82 °F (2002)
Min Temperature 48 °F 47 °F 31 °F (2014)
Degree Days  
Heating Degree Days 3    
Growing Degree Days 12 (Base 50)    
Moisture  
Dew Point 51 °F    
Average Humidity 73    
Maximum Humidity 92    
Minimum Humidity 43    
Precipitation  
Precipitation 0.00 in - - ()
Sea Level Pressure  
Sea Level Pressure 30.09 in    
Wind  
Wind Speed 8 mph (South)    
Max Wind Speed 10 mph    
Max Gust Speed -    
Visibility 10 miles    
Events      
Averages and records for this station are not official NWS values.
T = Trace of Precipitation, MM = Missing Value Source: NWS Daily Summary

Daily Weather History Graph

Daily Weather History Graph

Search for Another Location

Airport or City:

Trip Planner

Search our weather history database for the weather conditions in past years. The results will help you decide how hot, cold, wet, or windy it might be!

Date:

Astronomy

Sep. 19, 2013 Rise Set
Actual Time 6:46 AM EDT 7:05 PM EDT
Civil Twilight 6:17 AM EDT 7:34 PM EDT
Nautical Twilight 5:43 AM EDT 8:08 PM EDT
Astronomical Twilight 5:08 AM EDT 8:43 PM EDT
Moon 6:59 PM EDT (9/19) 6:55 AM EDT (9/19)
Length of Visible Light 13h 16m
Length of Day
12h 18m
Full, 100% of the Moon is Illuminated
Sep 19
Full
Sep 26
Last Quarter
Oct 4
New
Oct 11
First Quarter
Oct 18
Full

Hourly Weather History & Observations

Time (EDT) Temp. Dew Point Humidity Pressure Visibility Wind Dir Wind Speed Gust Speed Precip Events Conditions
12:58 AM 50.7 °F 48.0 °F 90% 30.12 in 10.0 mi SSE 9.2 mph - N/A   Clear
1:58 AM 50.4 °F 48.2 °F 92% 30.12 in 10.0 mi SE 10.4 mph - N/A   Clear
2:58 AM 49.6 °F 47.5 °F 92% 30.12 in 10.0 mi SSE 9.2 mph - N/A   Clear
3:58 AM 48.9 °F 46.8 °F 92% 30.12 in 10.0 mi SSE 9.2 mph - N/A   Clear
4:58 AM 48.6 °F 46.4 °F 92% 30.12 in 10.0 mi SSE 10.4 mph - N/A   Clear
5:58 AM 48.2 °F 46.0 °F 92% 30.12 in 10.0 mi SSE 10.4 mph - N/A   Clear
6:58 AM 48.2 °F 45.5 °F 90% 30.14 in 10.0 mi SSE 9.2 mph - N/A   Clear
7:58 AM 50.5 °F 46.2 °F 85% 30.14 in 10.0 mi SSE 8.1 mph - N/A   Clear
8:58 AM 55.6 °F 47.7 °F 75% 30.13 in 10.0 mi SSE 8.1 mph - N/A   Clear
9:58 AM 61.5 °F 50.0 °F 66% 30.14 in 10.0 mi Variable 3.5 mph - N/A   Clear
10:58 AM 67.1 °F 52.3 °F 59% 30.13 in 10.0 mi SSW 3.5 mph - N/A   Clear
11:58 AM 70.7 °F 52.3 °F 52% 30.12 in 10.0 mi WNW 4.6 mph - N/A   Clear
12:58 PM 74.1 °F 53.1 °F 48% 30.10 in 10.0 mi Variable 5.8 mph - N/A   Clear
1:58 PM 74.7 °F 51.8 °F 45% 30.07 in 10.0 mi Variable 4.6 mph - N/A   Clear
2:58 PM 76.5 °F 52.5 °F 43% 30.06 in 10.0 mi West 6.9 mph - N/A   Clear
3:58 PM 75.9 °F 53.1 °F 45% 30.04 in 10.0 mi West 8.1 mph - N/A   Clear
4:58 PM 75.0 °F 54.9 °F 49% 30.04 in 10.0 mi WNW 6.9 mph - N/A   Clear
5:58 PM 72.5 °F 53.6 °F 51% 30.05 in 10.0 mi WNW 4.6 mph - N/A   Clear
6:58 PM 67.5 °F 55.9 °F 66% 30.06 in 9.0 mi WNW 3.5 mph - N/A   Clear
7:58 PM 59.9 °F 55.2 °F 84% 30.07 in 9.0 mi South 2.3 mph - N/A   Clear
8:58 PM 58.5 °F 54.1 °F 86% 30.06 in 10.0 mi South 4.6 mph - N/A   Clear
9:58 PM 56.3 °F 54.0 °F 92% 30.05 in 10.0 mi Variable 2.3 mph - N/A   Clear
10:58 PM 57.9 °F 54.3 °F 88% 30.05 in 10.0 mi SSE 8.1 mph - N/A   Clear
11:58 PM 57.7 °F 53.4 °F 85% 30.03 in 10.0 mi SSE 10.4 mph - N/A   Clear